CRYOSAT 2 (36508 NORAD) Tracking and Keplerian Element Data

This shows tracking and keplerian element data for the satellite.

Feedback or suggestion? Click here.




ElementValue
Catalog36508
NameCRYOSAT 2
Epoch Orbit46035
Epoch Day348.90069649
Epoch Year2018
RAAN334.3908
Inclination92.0226
Eccentricity0.0005053
Argument of Perigee292.8925
Mean Anonmoly67.1748
Mean Motion14.5217482
Decay Rate3E-08
L11 36508U 10013A 18348.90069649 .00000003 00000-0 -63801-7 0 9993
L22 36508 92.0226 334.3908 0005053 292.8925 67.1748 14.52174820460350

Live tracking and technical data element details for CRYOSAT 2 (NORAD 36508). CRYOSAT 2 can be tracked NOW for your location showing map with azimuth and elevation plus other details from your city location.

Track the satellite on the map from your city or location and see movement details for azimuth, elevation, latitude, longitude, range, height, and movement on the map or in text.







IsCatalogInMostPopularTable: catalog: 36508, numindb: 60
Update: records affected: 1



GetName: 36508 CRYOSAT 2

Hit Count: updated at: Sat, 15 Dec 2018 14:28:04 GMT